When you browse on this site, cookies collect data to enhance your experience and personalize the content and advertising you see.
Visit our Privacy Policy to learn more. By continuing to use the site, you agree to this use of cookies and data.
  • In Hungary
  • List of Countries
  • For 7 days
  • Water Temperature
  • Satellite Maps
  • Weather Map
  • News
  • Weather Widgets
  • user-avatar
    Login

    Hourly Weather Kostopol

    Today, 24 April, Wednesday

    Time Temperature Precipitation Wind Pressure Humidity
    00:00 +10°C° 0 mm 4 mps 752 mmHg 56%
    01:00 +8°C° 0 mm 4 mps 752 mmHg 58%
    02:00 +8°C° 0 mm 4 mps 751 mmHg 59%
    03:00 +7°C° 0 mm 4 mps 751 mmHg 61%
    04:00 +7°C° 0 mm 4 mps 752 mmHg 62%
    05:00 +6°C° 0 mm 4 mps 752 mmHg 64%
    06:00 +8°C° 0 mm 5 mps 752 mmHg 58%
    07:00 +10°C° 0 mm 6 mps 752 mmHg 51%
    08:00 +12°C° 0 mm 7 mps 752 mmHg 44%
    09:00 +14°C° 0 mm 7 mps 752 mmHg 42%
    10:00 +15°C° 0 mm 8 mps 752 mmHg 39%
    11:00 +16°C° 0 mm 8 mps 752 mmHg 36%
    12:00 +16°C° 0 mm 8 mps 752 mmHg 36%
    13:00 +17°C° 0 mm 7 mps 752 mmHg 36%
    14:00 +17°C° 0 mm 7 mps 752 mmHg 35%
    15:00 +17°C° 0 mm 7 mps 751 mmHg 37%
    16:00 +17°C° 0 mm 7 mps 751 mmHg 38%
    17:00 +17°C° 0 mm 7 mps 751 mmHg 40%
    18:00 +15°C° 0 mm 6 mps 751 mmHg 45%
    19:00 +14°C° 0 mm 5 mps 751 mmHg 50%
    20:00 +12°C° 0 mm 4 mps 751 mmHg 54%
    21:00 +12°C° 0 mm 4 mps 751 mmHg 55%
    22:00 +11°C° 0 mm 4 mps 751 mmHg 56%
    23:00 +11°C° 0 mm 4 mps 751 mmHg 57%

    Tomorrow, 25 April, Thursday

    Time Temperature Precipitation Wind Pressure Humidity
    00:00 +10°C° 0 mm 4 mps 751 mmHg 58%
    01:00 +10°C° 0 mm 4 mps 751 mmHg 60%
    02:00 +10°C° 0 mm 4 mps 751 mmHg 61%
    03:00 +9°C° 0 mm 5 mps 751 mmHg 62%
    04:00 +8°C° 0 mm 5 mps 750 mmHg 63%
    05:00 +8°C° 0 mm 5 mps 750 mmHg 64%
    06:00 +9°C° 0 mm 5 mps 750 mmHg 61%
    07:00 +11°C° 0 mm 6 mps 750 mmHg 58%
    08:00 +13°C° 0 mm 6 mps 750 mmHg 54%
    09:00 +14°C° 0 mm 6 mps 750 mmHg 51%
    10:00 +16°C° 0 mm 6 mps 750 mmHg 47%
    11:00 +17°C° 0 mm 6 mps 750 mmHg 44%
    12:00 +19°C° 0 mm 6 mps 750 mmHg 43%
    13:00 +20°C° 0 mm 6 mps 750 mmHg 42%
    14:00 +21°C° 0 mm 6 mps 749 mmHg 42%
    15:00 +21°C° 0 mm 6 mps 749 mmHg 44%
    16:00 +20°C° 0 mm 6 mps 749 mmHg 46%
    17:00 +20°C° 0 mm 5 mps 748 mmHg 48%
    18:00 +17°C° 0 mm 5 mps 748 mmHg 53%
    19:00 +17°C° 0 mm 4 mps 748 mmHg 58%
    20:00 +14°C° 0 mm 4 mps 748 mmHg 64%
    21:00 +14°C° 0 mm 4 mps 748 mmHg 66%
    22:00 +13°C° 0 mm 4 mps 748 mmHg 67%
    23:00 +12°C° 0 mm 4 mps 748 mmHg 69%

    Day after tomorrow, 26 April, Friday

    Time Temperature Precipitation Wind Pressure Humidity
    00:00 +12°C° 0 mm 4 mps 747 mmHg 69%
    01:00 +12°C° 0 mm 4 mps 747 mmHg 68%
    02:00 +12°C° 0 mm 4 mps 747 mmHg 68%
    03:00 +12°C° 0 mm 4 mps 747 mmHg 69%
    04:00 +12°C° 0 mm 4 mps 747 mmHg 69%
    05:00 +12°C° 0 mm 4 mps 747 mmHg 70%
    06:00 +12°C° 0 mm 4 mps 747 mmHg 68%
    07:00 +13°C° 0 mm 5 mps 746 mmHg 66%
    08:00 +14°C° 0 mm 5 mps 746 mmHg 64%
    09:00 +16°C° 0 mm 5 mps 746 mmHg 60%
    10:00 +19°C° 0 mm 5 mps 746 mmHg 57%
    11:00 +21°C° 0 mm 5 mps 746 mmHg 53%
    12:00 +22°C° 0 mm 5 mps 746 mmHg 51%
    13:00 +23°C° 0 mm 5 mps 745 mmHg 49%
    14:00 +25°C° 0 mm 5 mps 745 mmHg 46%
    15:00 +25°C° 0 mm 5 mps 744 mmHg 47%
    16:00 +25°C° 0 mm 5 mps 744 mmHg 48%
    17:00 +23°C° 0 mm 5 mps 744 mmHg 49%
    18:00 +22°C° 0.3 mm 5 mps 743 mmHg 57%
    19:00 +20°C° 0.3 mm 5 mps 743 mmHg 65%
    20:00 +17°C° 0.3 mm 5 mps 743 mmHg 72%
    21:00 +17°C° 1.2 mm 5 mps 743 mmHg 76%
    22:00 +16°C° 1.2 mm 5 mps 743 mmHg 80%
    23:00 +15°C° 1.2 mm 5 mps 742 mmHg 83%

    27 April, Saturday

    Time Temperature Precipitation Wind Pressure Humidity
    00:00 +15°C° 1.3 mm 5 mps 742 mmHg 85%
    01:00 +14°C° 1.3 mm 5 mps 742 mmHg 86%
    02:00 +14°C° 1.3 mm 5 mps 742 mmHg 88%
    03:00 +13°C° 0.7 mm 4 mps 741 mmHg 89%
    04:00 +13°C° 0.7 mm 4 mps 741 mmHg 91%
    05:00 +13°C° 0.7 mm 3 mps 741 mmHg 92%
    06:00 +14°C° 0 mm 3 mps 741 mmHg 87%
    07:00 +17°C° 0 mm 3 mps 741 mmHg 82%
    08:00 +18°C° 0 mm 3 mps 741 mmHg 77%
    09:00 +20°C° 0 mm 3 mps 741 mmHg 69%
    10:00 +22°C° 0 mm 3 mps 741 mmHg 60%
    11:00 +25°C° 0 mm 3 mps 741 mmHg 52%
    12:00 +26°C° 0 mm 3 mps 741 mmHg 47%
    13:00 +27°C° 0 mm 3 mps 740 mmHg 43%
    14:00 +27°C° 0 mm 3 mps 740 mmHg 39%
    15:00 +27°C° 0 mm 2 mps 740 mmHg 41%
    16:00 +27°C° 0 mm 2 mps 740 mmHg 42%
    17:00 +27°C° 0 mm 2 mps 740 mmHg 44%
    18:00 +25°C° 0 mm 2 mps 739 mmHg 50%
    19:00 +23°C° 0 mm 1 mps 739 mmHg 56%
    20:00 +21°C° 0 mm 1 mps 739 mmHg 62%
    21:00 +19°C° 2.3 mm 2 mps 739 mmHg 71%
    22:00 +17°C° 2.3 mm 3 mps 740 mmHg 79%
    23:00 +16°C° 2.3 mm 3 mps 740 mmHg 88%

    28 April, Sunday

    Time Temperature Precipitation Wind Pressure Humidity
    00:00 +16°C° 0 mm 3 mps 740 mmHg 89%
    01:00 +15°C° 0 mm 2 mps 739 mmHg 90%
    02:00 +15°C° 0 mm 1 mps 739 mmHg 92%
    03:00 +15°C° 0 mm 1 mps 739 mmHg 92%
    04:00 +14°C° 0 mm 1 mps 739 mmHg 93%
    05:00 +14°C° 0 mm 1 mps 739 mmHg 94%
    06:00 +15°C° 0 mm 1 mps 739 mmHg 89%
    07:00 +16°C° 0 mm 1 mps 739 mmHg 85%
    08:00 +18°C° 0 mm 1 mps 740 mmHg 81%
    09:00 +20°C° 0 mm 1 mps 740 mmHg 73%
    10:00 +20°C° 0 mm 2 mps 740 mmHg 66%
    11:00 +23°C° 0 mm 2 mps 740 mmHg 59%
    12:00 +23°C° 0 mm 2 mps 739 mmHg 53%
    13:00 +24°C° 0 mm 3 mps 739 mmHg 48%
    14:00 +25°C° 0 mm 3 mps 739 mmHg 43%
    15:00 +25°C° 0 mm 3 mps 739 mmHg 43%
    16:00 +25°C° 0 mm 3 mps 739 mmHg 43%
    17:00 +25°C° 0 mm 3 mps 739 mmHg 44%
    18:00 +23°C° 0 mm 2 mps 739 mmHg 49%
    19:00 +20°C° 0 mm 2 mps 739 mmHg 54%
    20:00 +18°C° 0 mm 2 mps 739 mmHg 59%
    21:00 +17°C° 0 mm 2 mps 739 mmHg 63%
    22:00 +16°C° 0 mm 1 mps 739 mmHg 67%
    23:00 +15°C° 0 mm 1 mps 740 mmHg 70%

    29 April, Monday

    Time Temperature Precipitation Wind Pressure Humidity
    00:00 +15°C° 0 mm 1 mps 740 mmHg 72%
    01:00 +15°C° 0 mm 1 mps 740 mmHg 73%
    02:00 +14°C° 0 mm 2 mps 740 mmHg 75%
    03:00 +14°C° 0 mm 2 mps 740 mmHg 79%
    04:00 +13°C° 0 mm 3 mps 741 mmHg 83%
    05:00 +13°C° 0 mm 3 mps 741 mmHg 86%
    06:00 +13°C° 0.2 mm 4 mps 741 mmHg 87%
    07:00 +13°C° 0.2 mm 5 mps 742 mmHg 87%
    08:00 +13°C° 0.2 mm 5 mps 742 mmHg 87%
    09:00 +13°C° 0.9 mm 6 mps 742 mmHg 87%
    10:00 +11°C° 0.9 mm 6 mps 742 mmHg 88%
    11:00 +10°C° 0.9 mm 6 mps 743 mmHg 88%
    12:00 +10°C° 0.7 mm 6 mps 743 mmHg 88%
    13:00 +9°C° 0.7 mm 6 mps 743 mmHg 87%
    14:00 +9°C° 0.7 mm 6 mps 743 mmHg 87%
    15:00 +9°C° 0.3 mm 6 mps 743 mmHg 86%
    16:00 +9°C° 0.3 mm 6 mps 743 mmHg 86%
    17:00 +9°C° 0.3 mm 6 mps 743 mmHg 85%
    18:00 +8°C° 0.1 mm 6 mps 744 mmHg 85%
    19:00 +8°C° 0.1 mm 6 mps 744 mmHg 86%
    20:00 +8°C° 0.1 mm 5 mps 744 mmHg 86%
    21:00 +8°C° 0.1 mm 5 mps 745 mmHg 85%
    22:00 +8°C° 0.1 mm 6 mps 745 mmHg 85%
    23:00 +7°C° 0.1 mm 6 mps 745 mmHg 84%
    Show more